Change the Weather History Date:

Friday, May 17, 2013

  Actual Average Record
Temperature  
Mean Temperature 78 °F -  
Max Temperature 93 °F 92 °F 105 °F (2003)
Min Temperature 62 °F 60 °F 51 °F (2000)
Cooling Degree Days 12    
Growing Degree Days 28 (Base 50)    
Moisture  
Dew Point 28 °F    
Average Humidity 15    
Maximum Humidity 24    
Minimum Humidity 10    
Precipitation  
Precipitation 0.00 in - - ()
Sea Level Pressure  
Sea Level Pressure 29.85 in    
Wind  
Wind Speed 6 mph (SW)    
Max Wind Speed 21 mph    
Max Gust Speed 26 mph    
Visibility 10 miles    
Events      
Averages and records for this station are not official NWS values.
T = Trace of Precipitation, MM = Missing Value Source: NWS Daily Summary

Daily Weather History Graph

Daily Weather History Graph

Search for Another Location

Airport or City:

Trip Planner

Search our weather history database for the weather conditions in past years. The results will help you decide how hot, cold, wet, or windy it might be!

Date:

Astronomy

May. 17, 2013 Rise Set
Actual Time 5:26 AM MST 7:21 PM MST
Civil Twilight 4:58 AM MST 7:48 PM MST
Nautical Twilight 4:25 AM MST 8:21 PM MST
Astronomical Twilight 3:50 AM MST 8:57 PM MST
Moon 11:53 AM MST (5/17) 12:23 AM MST (5/17)
Length of Visible Light 14h 49m
Length of Day
13h 54m
Waxing Crescent, 46% of the Moon is Illuminated
May 17
Waxing Crescent
May 17
First Quarter
May 24
Full
May 31
Last Quarter
Jun 8
New

Hourly Weather History & Observations

Time (MST) Temp. Dew Point Humidity Pressure Visibility Wind Dir Wind Speed Gust Speed Precip Events Conditions
12:15 AM 78.8 °F 21.2 °F 12% 29.83 in 10.0 mi South 4.6 mph - N/A   Clear
12:35 AM 75.2 °F 21.2 °F 13% 29.83 in 9.0 mi ESE 4.6 mph - N/A   Clear
12:55 AM 75.2 °F 21.2 °F 13% 29.83 in 10.0 mi SE 6.9 mph - N/A   Clear
1:15 AM 75.2 °F 21.2 °F 13% 29.83 in 10.0 mi SE 4.6 mph - N/A   Clear
1:35 AM 69.8 °F 19.4 °F 15% 29.83 in 10.0 mi Calm Calm - N/A   Clear
1:55 AM 68.0 °F 21.2 °F 17% 29.83 in 10.0 mi NNW 4.6 mph - N/A   Clear
2:15 AM 66.2 °F 21.2 °F 18% 29.83 in 10.0 mi Calm Calm - N/A   Clear
2:35 AM 66.2 °F 21.2 °F 18% 29.83 in 10.0 mi Calm Calm - N/A   Clear
2:55 AM 66.2 °F 21.2 °F 18% 29.83 in 10.0 mi Calm Calm - N/A   Clear
3:15 AM 66.2 °F 21.2 °F 18% 29.83 in 10.0 mi South 4.6 mph - N/A   Clear
3:35 AM 62.6 °F 19.4 °F 19% 29.83 in 10.0 mi NNE 3.5 mph - N/A   Clear
3:55 AM 62.6 °F 21.2 °F 20% 29.83 in 10.0 mi Calm Calm - N/A   Clear
4:15 AM 62.6 °F 21.2 °F 20% 29.83 in 10.0 mi North 4.6 mph - N/A   Clear
4:35 AM 62.6 °F 23.0 °F 22% 29.83 in 10.0 mi NE 3.5 mph - N/A   Clear
5:15 AM 62.6 °F 23.0 °F 22% 29.85 in 10.0 mi NE 4.6 mph - N/A   Clear
5:35 AM 62.6 °F 24.8 °F 24% 29.85 in 10.0 mi NE 4.6 mph - N/A   Clear
5:55 AM 62.6 °F 24.8 °F 24% 29.86 in 10.0 mi ENE 4.6 mph - N/A   Clear
6:15 AM 64.4 °F 26.6 °F 24% 29.87 in 10.0 mi East 4.6 mph - N/A   Clear
6:35 AM 69.8 °F 28.4 °F 21% 29.87 in 10.0 mi East 4.6 mph - N/A   Clear
6:55 AM 71.6 °F 28.4 °F 20% 29.87 in 10.0 mi ESE 6.9 mph - N/A   Clear
7:15 AM 73.4 °F 28.4 °F 19% 29.88 in 10.0 mi ESE 4.6 mph - N/A   Clear
7:35 AM 75.2 °F 30.2 °F 19% 29.88 in 10.0 mi SE 4.6 mph - N/A   Clear
7:55 AM 77.0 °F 30.2 °F 18% 29.88 in 10.0 mi ESE 5.8 mph - N/A   Clear
8:15 AM 78.8 °F 32.0 °F 18% 29.89 in 10.0 mi ESE 4.6 mph - N/A   Clear
8:35 AM 80.6 °F 33.8 °F 18% 29.89 in 10.0 mi SSE 3.5 mph - N/A   Clear
8:55 AM 82.4 °F 32.0 °F 16% 29.89 in 10.0 mi South 4.6 mph - N/A   Clear
9:15 AM 84.2 °F 30.2 °F 14% 29.89 in 10.0 mi South 4.6 mph - N/A   Clear
9:35 AM 86.0 °F 30.2 °F 13% 29.90 in 10.0 mi South 8.1 mph - N/A   Clear
9:55 AM 87.8 °F 30.2 °F 13% 29.90 in 10.0 mi SW 8.1 mph 17.3 mph N/A   Clear
10:15 AM 87.8 °F 30.2 °F 13% 29.90 in 10.0 mi SW 11.5 mph - N/A   Clear
10:35 AM 87.8 °F 30.2 °F 13% 29.89 in 10.0 mi SSW 15.0 mph 21.9 mph N/A   Clear
10:55 AM 89.6 °F 30.2 °F 12% 29.89 in 10.0 mi SW 6.9 mph 16.1 mph N/A   Clear
11:15 AM 89.6 °F 30.2 °F 12% 29.89 in 10.0 mi SW 11.5 mph 16.1 mph N/A   Clear
11:35 AM 91.4 °F 30.2 °F 11% 29.89 in 10.0 mi WSW 11.5 mph 21.9 mph N/A   Clear
12:15 PM 91.4 °F 28.4 °F 10% 29.87 in 10.0 mi SW 5.8 mph - N/A   Clear
12:35 PM 91.4 °F 28.4 °F 10% 29.86 in 10.0 mi South 4.6 mph - N/A   Clear
12:55 PM 93.2 °F 28.4 °F 10% 29.86 in 10.0 mi SSW 13.8 mph 20.7 mph N/A   Clear
1:15 PM 93.2 °F 30.2 °F 11% 29.85 in 10.0 mi SW 12.7 mph 23.0 mph N/A   Clear
1:35 PM 93.2 °F 30.2 °F 11% 29.84 in 10.0 mi South 10.4 mph 21.9 mph N/A   Clear
1:55 PM 93.2 °F 30.2 °F 11% 29.84 in 10.0 mi WSW 10.4 mph 20.7 mph N/A   Clear
2:15 PM 93.2 °F 30.2 °F 11% 29.83 in 10.0 mi SW 15.0 mph 26.5 mph N/A   Clear
2:35 PM 93.2 °F 30.2 °F 11% 29.83 in 10.0 mi WSW 15.0 mph 18.4 mph N/A   Clear
2:55 PM 93.2 °F 30.2 °F 11% 29.82 in 10.0 mi West 9.2 mph 19.6 mph N/A   Clear
3:15 PM 93.2 °F 28.4 °F 10% 29.82 in 10.0 mi WNW 12.7 mph 24.2 mph N/A   Clear
3:35 PM 91.4 °F 28.4 °F 10% 29.82 in 10.0 mi West 11.5 mph 17.3 mph N/A   Clear
3:55 PM 93.2 °F 30.2 °F 11% 29.82 in 10.0 mi WNW 20.7 mph 25.3 mph N/A   Clear
4:15 PM 91.4 °F 30.2 °F 11% 29.82 in 10.0 mi West 15.0 mph 20.7 mph N/A   Clear
4:35 PM 89.6 °F 30.2 °F 12% 29.81 in 10.0 mi WNW 13.8 mph - N/A   Clear
4:55 PM 89.6 °F 30.2 °F 12% 29.82 in 10.0 mi West 12.7 mph - N/A   Clear
5:15 PM 89.6 °F 30.2 °F 12% 29.81 in 10.0 mi West 10.4 mph - N/A   Clear
5:35 PM 89.6 °F 30.2 °F 12% 29.81 in 10.0 mi West 11.5 mph - N/A   Clear
5:55 PM 89.6 °F 30.2 °F 12% 29.81 in 10.0 mi West 11.5 mph - N/A   Clear
6:15 PM 87.8 °F 30.2 °F 13% 29.81 in 10.0 mi West 12.7 mph - N/A   Clear
6:35 PM 87.8 °F 30.2 °F 13% 29.82 in 10.0 mi WNW 12.7 mph 18.4 mph N/A   Clear
6:55 PM 87.8 °F 30.2 °F 13% 29.82 in 10.0 mi WNW 10.4 mph - N/A   Clear
7:15 PM 87.8 °F 28.4 °F 12% 29.82 in 10.0 mi West 9.2 mph - N/A   Clear
7:35 PM 86.0 °F 28.4 °F 12% 29.83 in 10.0 mi West 9.2 mph - N/A   Clear
7:55 PM 84.2 °F 28.4 °F 13% 29.83 in 10.0 mi West 9.2 mph - N/A   Clear
8:15 PM 84.2 °F 30.2 °F 14% 29.84 in 10.0 mi West 9.2 mph - N/A   Clear
8:35 PM 82.4 °F 30.2 °F 15% 29.84 in 10.0 mi West 8.1 mph - N/A   Clear
8:55 PM 80.6 °F 32.0 °F 17% 29.85 in 10.0 mi WSW 4.6 mph - N/A   Clear
9:35 PM 80.6 °F 32.0 °F 17% 29.86 in 10.0 mi Calm Calm - N/A   Clear
9:55 PM 80.6 °F 28.4 °F 15% 29.86 in 10.0 mi South 3.5 mph - N/A   Clear
10:15 PM 80.6 °F 26.6 °F 14% 29.87 in 10.0 mi Calm Calm - N/A   Clear
10:35 PM 80.6 °F 26.6 °F 14% 29.87 in 10.0 mi South 5.8 mph - N/A   Clear
10:55 PM 78.8 °F 26.6 °F 15% 29.87 in 10.0 mi South 5.8 mph - N/A   Clear
11:15 PM 78.8 °F 26.6 °F 15% 29.87 in 10.0 mi South 8.1 mph - N/A   Clear
11:35 PM 78.8 °F 26.6 °F 15% 29.87 in 10.0 mi South 9.2 mph - N/A   Clear
11:55 PM 78.8 °F 26.6 °F 15% 29.87 in 10.0 mi South 10.4 mph - N/A   Clear